TimeEDT,TemperatureF,Dew PointF,Humidity,Sea Level PressureIn,VisibilityMPH,Wind Direction,Wind SpeedMPH,Gust SpeedMPH,PrecipitationIn,Events,Conditions,WindDirDegrees,DateUTC
12:51 AM,59.0,57.0,93,30.05,10.0,South,4.6,-,N/A,,Clear,190,2012-09-26 04:51:00
1:51 AM,60.1,57.0,90,30.06,10.0,South,9.2,-,N/A,,Clear,190,2012-09-26 05:51:00
2:51 AM,60.1,57.0,90,30.09,10.0,SW,5.8,-,N/A,,Overcast,220,2012-09-26 06:51:00
3:51 AM,60.1,55.9,86,30.06,10.0,SSW,5.8,-,N/A,,Clear,200,2012-09-26 07:51:00
4:51 AM,59.0,55.9,90,30.08,10.0,SSW,4.6,-,N/A,,Scattered Clouds,210,2012-09-26 08:51:00
5:51 AM,61.0,57.9,90,30.04,8.0,SSE,9.2,-,0.11,Rain,Light Rain,160,2012-09-26 09:51:00
6:51 AM,59.0,57.0,93,30.10,10.0,South,5.8,-,0.01,,Scattered Clouds,190,2012-09-26 10:51:00
7:51 AM,59.0,57.0,93,30.14,9.0,SSW,3.5,-,N/A,,Overcast,210,2012-09-26 11:51:00
8:51 AM,60.1,57.0,90,30.13,10.0,SSE,5.8,-,0.01,,Mostly Cloudy,160,2012-09-26 12:51:00
9:51 AM,63.0,57.9,84,30.12,10.0,South,9.2,-,N/A,,Overcast,190,2012-09-26 13:51:00
10:51 AM,68.0,59.0,73,30.14,10.0,SSW,6.9,-,N/A,,Overcast,200,2012-09-26 14:51:00
11:51 AM,73.0,60.1,64,30.12,10.0,WSW,10.4,-,N/A,,Clear,240,2012-09-26 15:51:00
12:51 PM,75.9,59.0,56,30.11,10.0,SW,10.4,19.6,N/A,,Clear,230,2012-09-26 16:51:00
1:51 PM,78.1,60.1,54,30.08,10.0,SSW,12.7,18.4,N/A,,Clear,210,2012-09-26 17:51:00
5:51 PM,77.0,64.0,64,30.06,10.0,Calm,Calm,-,N/A,,Overcast,0,2012-09-26 21:51:00
6:51 PM,75.9,64.0,67,30.07,10.0,Calm,Calm,-,N/A,,Partly Cloudy,0,2012-09-26 22:51:00
7:42 PM,73.4,66.2,78,30.09,10.0,Calm,Calm,-,N/A,Thunderstorm,Thunderstorm,0,2012-09-26 23:42:00
7:51 PM,73.4,64.4,73,30.10,10.0,North,4.6,-,N/A,Thunderstorm,Thunderstorm,350,2012-09-26 23:51:00
8:01 PM,69.8,66.2,88,30.12,1.0,West,12.7,31.1,0.02,Rain-Hail-Thunderstorm,Heavy Thunderstorms with Hail,270,2012-09-27 00:01:00
8:05 PM,69.8,64.4,83,30.11,0.8,NW,4.6,31.1,0.23,Rain,Heavy Rain,320,2012-09-27 00:05:00
8:09 PM,69.8,64.4,83,30.11,1.0,NNW,5.8,-,0.32,Rain-Thunderstorm,Thunderstorms and Rain,340,2012-09-27 00:09:00
8:12 PM,69.8,64.4,83,30.11,3.0,ENE,5.8,-,0.32,Rain-Thunderstorm,Thunderstorms and Rain,60,2012-09-27 00:12:00
8:24 PM,68.0,64.4,88,30.11,9.0,Calm,Calm,-,0.32,,Mostly Cloudy,0,2012-09-27 00:24:00
8:51 PM,66.9,64.0,90,30.10,8.0,Calm,Calm,-,0.32,,Mostly Cloudy,0,2012-09-27 00:51:00
9:51 PM,66.0,64.9,96,30.09,8.0,Calm,Calm,-,N/A,,Clear,0,2012-09-27 01:51:00
10:09 PM,66.2,64.4,94,30.10,1.5,Calm,Calm,-,N/A,,Clear,0,2012-09-27 02:09:00
10:46 PM,66.2,66.2,100,30.12,4.0,Calm,Calm,-,N/A,,Overcast,0,2012-09-27 02:46:00
10:51 PM,66.9,66.0,97,30.11,4.0,Calm,Calm,-,N/A,,Overcast,0,2012-09-27 02:51:00
11:51 PM,66.0,64.9,96,30.12,0.8,Calm,Calm,-,N/A,,Partly Cloudy,0,2012-09-27 03:51:00